Wind_Speed
33 32 30 29 28 28 28 23 23 21 19 17 16 15 14 13 12 12 12 11 8 6 4 5 4 4 6 7 7 7 8 9 9 10 10 11 10 9 9 10 11 11 10
37 35 33 31 30 29 28 24 23 21 19 16 16 14 13 13 11 11 10 9 7 6 5 5 5 5 5 5 6 7 8 8 8 9 9 10 10 7 8 7 7 8 7
38 36 35 32 31 30 28 25 22 21 20 20 18 13 11 11 10 10 9 8 6 5 4 4 5 5 6 6 7 8 9 9 8 9 8 8 8 5 4 6 7 7 6
38 38 36 34 32 31 28 25 23 23 24 18 14 12 10 10 10 9 9 8 7 7 6 6 6 7 7 7 8 9 10 9 9 9 8 7 6 4 3 4 3 5 6
40 39 37 36 34 31 28 26 25 26 21 17 13 11 10 10 10 10 9 9 7 7 7 7 7 8 8 9 10 10 10 10 10 9 7 5 4 6 6 6 6 5 7
41 40 38 36 33 31 27 27 28 23 19 15 12 11 10 10 10 10 9 8 7 6 6 7 9 9 10 11 11 11 10 8 8 7 5 9 8 11 9 10 10 7 6
43 41 39 36 32 30 30 27 25 21 18 14 12 11 11 11 10 10 9 7 7 6 7 9 11 11 12 13 13 13 13 11 10 12 15 15 13 10 11 7 7 7 4
43 43 40 34 33 32 28 25 23 20 17 15 13 13 12 12 11 10 9 8 7 7 9 11 14 14 14 14 13 13 13 11 13 15 16 14 8 7 1 2 2 1 4
41 42 38 37 34 30 26 25 21 19 17 15 15 14 13 12 11 11 10 9 9 10 11 14 17 16 16 15 13 13 10 9 9 11 11 9 8 8 7 5 4 1 3
39 38 39 37 34 30 27 24 21 19 17 17 16 15 14 13 12 10 10 11 12 12 14 18 17 17 16 15 12 9 7 5 6 8 7 8 7 3 5 3 3 9 9
38 36 38 37 35 31 27 25 22 20 19 18 16 16 14 13 12 12 12 13 13 15 15 17 16 16 15 13 10 6 5 7 12 16 17 14 11 9 8 8 8 9 10
42 40 39 38 34 29 28 25 22 20 19 18 17 16 15 14 13 13 14 15 16 16 16 17 14 12 10 8 8 8 9 13 13 14 14 9 9 6 3 4 6 9 11
45 43 44 39 35 32 28 24 22 21 21 20 18 16 15 14 13 13 14 16 17 16 16 16 13 11 10 10 10 10 11 12 10 8 7 5 6 7 6 6 9 10 11
52 44 44 39 36 31 27 25 23 22 21 21 19 17 15 15 15 15 15 16 16 15 15 15 12 11 10 10 10 10 11 9 8 7 5 6 7 8 8 8 9 10 11
34 48 43 39 35 31 27 25 23 22 20 19 19 17 16 14 15 15 15 15 15 15 15 14 12 10 10 10 10 9 9 9 8 7 7 6 6 6 7 7 8 8 9
22 48 44 38 33 29 27 25 23 22 21 19 17 16 15 13 13 14 14 14 14 14 14 12 11 9 8 8 8 9 8 8 7 7 6 5 5 5 5 5 6 6 7
31 47 42 38 32 27 26 24 23 22 20 17 16 15 13 13 12 13 13 13 14 13 13 12 11 10 7 7 7 7 6 6 5 5 4 4 4 4 4 4 4 5 6
23 19 37 39 33 27 26 25 23 21 19 18 16 14 13 12 11 11 12 13 13 13 12 12 10 9 8 6 4 5 4 4 3 4 3 2 2 3 2 3 4 5 6
8 17 17 35 32 29 27 25 23 20 18 17 15 13 12 11 11 11 11 12 12 12 11 11 10 9 7 6 4 2 1 2 1 2 2 2 2 3 3 4 3 5 6
8 10 26 14 16 24 23 22 21 19 18 16 15 14 12 12 11 11 11 11 12 11 11 10 9 8 7 6 5 4 4 3 2 2 1 1 1 3 4 4 4 5 6
18 22 20 8 17 20 20 21 19 19 18 18 17 14 12 11 11 11 11 11 11 11 11 10 9 8 7 6 5 6 5 6 5 4 3 2 2 3 3 4 5 5 5
18 26 19 28 29 22 9 16 17 17 16 14 14 14 12 11 10 10 10 10 10 9 9 9 8 7 6 5 4 5 4 7 9 7 6 5 5 5 5 6 5 6 7
18 22 22 21 27 25 21 29 27 19 16 17 16 14 13 11 10 10 10 10 10 10 9 9 8 6 5 5 5 4 2 2 4 8 9 9 8 7 8 8 8 9 10
16 17 16 22 22 25 31 30 25 23 23 14 11 11 11 11 10 10 10 10 9 9 9 8 7 6 5 5 6 5 6 7 5 5 6 9 10 10 10 11 12 11 13
15 17 14 19 25 27 30 30 29 28 25 24 17 10 9 9 9 9 9 9 10 10 10 8 7 7 6 5 5 6 7 8 10 9 6 7 10 10 12 13 14 15 14
16 16 18 21 26 28 31 27 27 28 24 23 23 19 10 9 10 12 11 10 10 11 10 9 9 8 7 6 6 6 9 9 10 10 10 9 11 11 13 14 15 15 15
Wind_Direction
177 174 172 171 169 167 166 161 158 158 158 158 158 158 157 154 152 150 153 159 169 181 193 185 186 165 148 142 141 129 130 128 118 112 107 95 85 75 72 72 72 69 63
167 173 171 170 167 166 166 163 160 159 158 157 152 160 160 164 165 167 175 186 201 214 210 200 190 181 179 173 164 152 142 138 132 126 114 103 84 77 75 71 70 65 61
169 171 170 169 167 165 165 164 162 160 157 160 166 166 169 174 181 186 191 195 195 193 182 174 169 163 164 165 162 163 160 153 139 124 123 106 77 79 86 76 74 72 70
169 170 169 168 167 166 166 165 163 160 165 168 172 177 184 188 188 185 183 180 177 171 161 157 152 152 153 149 153 162 165 162 145 129 130 106 78 60 99 80 59 66 52
171 170 169 169 168 168 168 167 164 170 172 178 183 188 186 183 179 173 171 169 166 158 151 149 148 151 147 141 139 144 157 161 150 150 136 123 62 66 78 79 82 74 79
172 171 170 170 171 169 168 170 173 175 182 185 189 185 180 175 170 165 164 163 157 147 144 144 145 146 143 135 134 131 138 149 163 173 156 95 91 96 90 94 95 91 104
172 171 171 171 171 171 173 173 177 183 185 187 185 181 174 171 167 163 161 157 151 146 145 147 145 148 141 136 130 123 120 116 114 113 118 109 106 105 94 93 99 82 69
173 171 171 172 174 175 176 175 180 182 185 183 180 175 172 171 165 163 160 156 147 147 146 148 150 146 137 134 130 121 118 107 117 119 120 116 112 91 161 151 114 43 66
176 171 170 176 179 181 177 179 181 184 182 179 175 170 170 170 165 161 157 153 148 149 147 151 150 144 140 136 136 135 131 117 126 132 126 117 116 100 101 102 89 27 340
178 173 176 179 182 182 181 182 183 183 182 176 172 169 168 168 163 158 155 152 148 144 148 150 154 147 146 147 148 149 149 147 140 146 143 141 120 111 91 88 65 62 54
181 180 182 181 184 184 183 183 183 181 180 175 169 167 167 167 162 160 156 151 148 146 154 154 152 151 150 147 145 148 153 145 127 123 115 112 107 111 90 93 75 51 51
185 183 187 185 185 185 186 185 184 181 176 173 170 168 166 166 163 160 156 152 149 149 153 156 157 150 147 138 129 123 130 132 134 121 129 138 99 106 102 22 53 52 53
192 188 190 187 185 188 187 185 183 182 177 171 169 168 166 166 159 155 155 150 147 146 150 155 158 152 144 130 119 114 120 131 128 124 125 76 68 74 72 64 58 54 51
192 189 188 188 184 187 189 187 186 185 178 173 170 166 166 165 158 156 154 150 153 154 155 155 159 148 139 126 117 112 114 124 126 123 103 87 83 78 71 64 57 50 47
196 192 189 190 187 188 190 187 187 185 180 176 171 168 167 166 165 162 160 156 154 154 156 154 152 143 130 123 117 112 111 112 113 110 103 97 87 79 71 64 58 51 42
285 192 193 191 187 186 188 189 187 183 181 178 174 171 168 168 171 166 163 160 159 154 156 155 152 149 139 127 121 117 114 115 115 113 108 98 86 74 68 62 54 46 37
282 186 188 187 186 192 190 190 188 185 183 182 178 174 171 170 173 171 169 165 164 162 160 159 158 156 154 141 135 126 120 119 119 112 107 97 87 62 55 44 40 33 25
251 169 172 179 187 192 194 190 188 187 185 182 179 176 172 174 176 174 172 171 170 169 167 166 165 164 160 157 149 136 128 119 116 113 118 104 91 34 36 16 10 7 5
233 229 179 173 178 183 187 188 186 184 184 183 181 180 177 177 178 177 178 177 176 175 173 175 174 175 172 177 183 186 165 145 136 118 116 109 48 19 15 353 347 347 349
196 225 240 250 179 171 174 180 179 181 183 187 186 184 184 183 182 180 183 184 183 184 183 181 183 181 185 196 207 219 238 255 255 221 183 171 330 348 346 349 340 335 338
184 199 194 210 218 240 171 172 181 188 188 185 185 187 187 187 188 188 186 189 188 187 190 190 191 191 195 206 217 238 243 255 262 259 240 261 264 304 316 321 326 326 328
198 209 216 198 187 201 219 218 177 184 184 188 183 182 183 185 186 191 189 190 192 195 198 198 198 199 213 216 225 227 240 248 242 249 241 263 261 289 303 305 313 320 329
196 208 195 199 207 206 217 211 196 179 179 181 178 178 178 180 185 191 192 194 194 199 202 205 207 207 221 231 234 235 257 251 241 233 245 254 255 272 282 291 306 312 318
196 200 205 210 206 208 199 194 207 213 188 187 175 176 174 182 188 192 195 197 202 208 214 213 221 224 236 250 260 261 265 264 262 256 244 244 258 267 277 283 298 300 306
192 196 210 212 211 210 201 209 206 195 209 195 174 183 195 191 197 204 203 203 208 213 221 226 236 243 243 248 252 274 273 272 268 265 274 257 259 264 270 279 290 293 293
190 200 202 211 209 207 204 211 210 207 222 216 212 188 199 204 212 208 204 213 223 226 227 235 238 235 242 260 272 286 280 276 282 284 280 280 279 274 274 280 285 289 288
Height
1481 1485 1490 1495 1499 1502 1506 1509 1511 1513 1515 1517 1519 1520 1522 1523 1524 1525 1526 1527 1527 1527 1528 1528 1528 1528 1529 1529 1530 1531 1531 1532 1532 1533 1533 1533 1533 1534 1534 1534 1534 1534 1534
1476 1483 1488 1493 1497 1501 1504 1508 1511 1513 1515 1517 1519 1520 1521 1523 1524 1525 1525 1526 1527 1527 1527 1527 1528 1528 1529 1529 1530 1531 1532 1533 1533 1534 1534 1535 1535 1535 1535 1535 1535 1535 1535
1475 1481 1486 1491 1495 1500 1503 1506 1510 1512 1514 1517 1518 1520 1521 1522 1523 1524 1525 1525 1526 1526 1526 1527 1527 1528 1528 1529 1530 1531 1532 1533 1534 1535 1536 1536 1536 1536 1536 1537 1536 1536 1536
1473 1479 1484 1490 1494 1498 1502 1505 1508 1511 1513 1516 1518 1519 1520 1522 1522 1523 1524 1525 1525 1526 1526 1527 1527 1528 1528 1529 1530 1531 1532 1533 1535 1536 1536 1537 1538 1538 1537 1537 1537 1537 1537
1473 1478 1483 1488 1492 1496 1500 1504 1507 1509 1512 1514 1516 1518 1519 1521 1522 1523 1524 1524 1525 1526 1526 1526 1527 1528 1529 1529 1530 1531 1532 1533 1535 1536 1537 1538 1539 1538 1538 1538 1538 1538 1539
1471 1477 1483 1488 1491 1495 1499 1503 1505 1509 1511 1513 1515 1516 1518 1519 1521 1522 1523 1524 1525 1526 1526 1527 1527 1528 1529 1530 1530 1532 1533 1534 1535 1537 1538 1539 1539 1539 1540 1539 1539 1539 1539
1469 1476 1482 1487 1491 1495 1499 1502 1505 1508 1510 1511 1513 1515 1517 1519 1520 1522 1523 1524 1525 1526 1527 1527 1528 1529 1530 1531 1532 1533 1534 1535 1536 1537 1538 1540 1540 1541 1540 1540 1540 1540 1539
1471 1474 1481 1486 1491 1494 1497 1501 1505 1507 1509 1510 1512 1515 1517 1518 1520 1522 1524 1525 1525 1526 1527 1527 1528 1529 1531 1533 1534 1535 1536 1537 1538 1539 1540 1541 1542 1542 1541 1541 1541 1540 1539
1477 1477 1480 1485 1490 1494 1497 1500 1503 1506 1508 1510 1512 1514 1517 1519 1520 1522 1523 1525 1525 1527 1527 1527 1528 1531 1532 1534 1535 1537 1537 1538 1540 1541 1541 1542 1543 1543 1542 1542 1541 1540 1539
1481 1481 1481 1486 1490 1494 1497 1499 1502 1504 1507 1509 1511 1514 1516 1519 1520 1522 1523 1524 1525 1527 1528 1528 1530 1532 1534 1535 1537 1538 1539 1539 1539 1541 1542 1543 1543 1544 1543 1542 1541 1540 1539
1481 1483 1484 1485 1490 1493 1497 1499 1501 1503 1506 1509 1511 1513 1516 1518 1520 1522 1523 1524 1526 1527 1528 1529 1532 1534 1535 1536 1537 1538 1539 1539 1539 1540 1541 1543 1543 1544 1543 1542 1542 1540 1539
1476 1479 1482 1484 1490 1495 1497 1500 1502 1503 1505 1508 1511 1512 1514 1517 1519 1521 1523 1524 1526 1528 1530 1531 1533 1536 1537 1538 1538 1539 1539 1540 1540 1541 1542 1543 1543 1543 1543 1543 1542 1540 1540
1471 1476 1477 1481 1487 1493 1497 1500 1502 1504 1505 1507 1510 1512 1514 1517 1519 1521 1523 1525 1527 1529 1531 1534 1535 1537 1538 1540 1539 1540 1540 1541 1542 1543 1543 1543 1543 1543 1543 1543 1542 1541 1541
1462 1469 1473 1479 1483 1491 1497 1499 1502 1504 1506 1507 1510 1512 1515 1517 1518 1521 1524 1526 1528 1530 1532 1534 1537 1539 1539 1540 1540 1541 1541 1542 1543 1544 1544 1544 1544 1544 1543 1543 1543 1543 1542
1447 1465 1472 1476 1482 1489 1496 1498 1501 1504 1507 1508 1510 1512 1516 1518 1519 1521 1523 1526 1528 1530 1533 1535 1537 1540 1540 1541 1541 1542 1543 1544 1544 1544 1545 1545 1545 1545 1545 1544 1544 1544 1543
1441 1459 1472 1475 1481 1488 1494 1497 1500 1503 1506 1509 1511 1513 1516 1518 1521 1522 1524 1526 1529 1531 1532 1535 1537 1539 1541 1542 1543 1544 1544 1544 1546 1546 1546 1546 1547 1546 1546 1546 1545 1545 1545
1464 1458 1465 1473 1479 1489 1493 1497 1500 1503 1506 1509 1511 1513 1516 1519 1521 1523 1525 1527 1530 1531 1533 1535 1537 1539 1541 1543 1544 1544 1545 1546 1546 1546 1547 1547 1548 1547 1547 1547 1546 1546 1545
1465 1453 1457 1468 1479 1487 1491 1495 1499 1502 1505 1508 1510 1513 1515 1519 1522 1523 1525 1527 1529 1531 1534 1536 1537 1539 1542 1543 1545 1545 1546 1546 1547 1546 1547 1548 1548 1548 1547 1547 1547 1547 1545
1458 1465 1459 1466 1473 1482 1489 1495 1499 1502 1505 1508 1510 1512 1515 1518 1521 1523 1525 1527 1530 1532 1533 1535 1537 1540 1541 1543 1544 1545 1546 1546 1547 1546 1547 1548 1549 1549 1549 1548 1547 1547 1546
1457 1463 1458 1464 1477 1480 1488 1496 1499 1503 1505 1508 1510 1511 1514 1517 1520 1522 1525 1528 1530 1532 1535 1536 1538 1539 1541 1543 1544 1545 1546 1546 1547 1547 1546 1547 1548 1549 1549 1548 1548 1547 1546
1458 1467 1467 1465 1476 1479 1489 1499 1501 1503 1506 1507 1507 1510 1513 1516 1520 1522 1524 1527 1529 1532 1535 1536 1537 1539 1540 1542 1543 1545 1545 1545 1545 1545 1546 1547 1547 1548 1547 1547 1547 1547 1545
1465 1469 1467 1469 1476 1483 1486 1500 1500 1504 1506 1509 1508 1508 1511 1515 1518 1522 1524 1527 1529 1532 1535 1536 1537 1538 1540 1541 1542 1543 1543 1545 1544 1544 1544 1544 1545 1547 1547 1547 1546 1546 1545
1463 1466 1464 1472 1476 1479 1482 1486 1494 1500 1504 1507 1506 1507 1510 1513 1517 1521 1523 1526 1528 1531 1533 1535 1536 1536 1538 1540 1541 1542 1542 1542 1544 1542 1542 1542 1543 1544 1545 1546 1545 1544 1543
1457 1458 1460 1468 1470 1473 1481 1489 1488 1492 1496 1505 1505 1507 1508 1512 1516 1519 1522 1524 1526 1530 1532 1533 1535 1535 1537 1539 1541 1540 1541 1543 1544 1542 1540 1540 1541 1541 1542 1543 1543 1541 1542
1453 1457 1461 1467 1472 1476 1482 1485 1487 1490 1495 1497 1500 1504 1509 1511 1515 1518 1519 1521 1524 1526 1530 1530 1533 1535 1536 1536 1536 1537 1539 1540 1543 1541 1539 1539 1540 1539 1541 1541 1541 1540 1539
1455 1459 1463 1469 1472 1476 1480 1482 1484 1487 1490 1494 1497 1501 1507 1510 1513 1516 1514 1517 1521 1523 1525 1526 1530 1532 1533 1534 1535 1531 1538 1539 1539 1540 1540 1538 1538 1539 1539 1537 1537 1536 1535